Regional Weather Roundup
Issued by NWS

Home | Current Version | Previous Version | Text Only | Print | Product List | Glossary Off
Versions: 1 2 3 4 5 6 7 8 9 10 11 12 13 14 15 16 17 18 19 20 21 22 23 24 25 26 27 28 29 30 31 32 33 34 35 36 37 38 39 40 41 42 43 44 45 46 47 48 49 50

000
ASUS43 KBIS 311410
RWRND

NORTH DAKOTA REGIONAL WEATHER ROUNDUP
NATIONAL WEATHER SERVICE BISMARCK ND
900 AM CDT TUE MAY 31 2016

NOTE: "FAIR" INDICATES FEW OR NO CLOUDS BELOW 12,000 FEET WITH NO
SIGNIFICANT WEATHER AND/OR OBSTRUCTIONS TO VISIBILITY.


NDZ001>003-009>011-017-311500-
NORTHWEST NORTH DAKOTA

CITY           SKY/WX    TMP DP  RH WIND       PRES   REMARKS
WILLISTON      LGT RAIN  54  51  90 N25G32    29.71F FOG
MINOT          CLOUDY    56  49  77 SW12G23   29.61F
MINOT AFB      DRIZZLE   52  49  89 NW28G33   29.58F
$$

NDZ018>021-031>035-040>046-311500-
SOUTHWEST NORTH DAKOTA

CITY           SKY/WX    TMP DP  RH WIND       PRES   REMARKS
BISMARCK       PTSUNNY   53  46  77 W15G29    29.76F
DICKINSON      CLOUDY    49  45  86 W18G29    29.75F
GARRISON         N/A     51  48  89 W16       29.69F
HETTINGER ARPT CLOUDY    50  43  77 W22       29.84F
$$

NDZ004>008-012>016-024-026-027-054-311500-
NORTHEAST NORTH DAKOTA

CITY           SKY/WX    TMP DP  RH WIND       PRES   REMARKS
GRAND FORKS    CLOUDY    62  57  83 S13       29.67F
GRND FRKS AFB  CLOUDY    63  59  88 SW10      29.67S
DEVILS LAKE    CLOUDY    58  55  90 SW13      29.66S
$$

NDZ022-023-025-028>030-036>039-047>053-311500-
SOUTHEAST NORTH DAKOTA

CITY           SKY/WX    TMP DP  RH WIND       PRES   REMARKS
FARGO          CLOUDY    63  57  81 SW14      29.73R
JAMESTOWN      PTSUNNY   56  50  80 W21G26    29.72S
$$





USA.gov is the U.S. government's official web portal to all federal, state and local government web resources and services.